Location: Eckley
(40.9930°N, 75.8630°W)
Time: 02:18:21
(UTC-04:00)

Daily predictions for brighter satellites

Satellite Brightness Start Highest point End
(mag) Time Altitude Azimuth Time Altitude Azimuth Time Altitude Azimuth
Cosmos 1869 Rocket 3.8 00:04:37 60° E 00:04:37 60° E 00:08:51 10° NNE
Cosmos 2333 Rocket 2.4 00:00:28 10° NNW 00:06:08 61° WSW 00:07:11 52° SSW
ALOS 2 3.2 00:06:37 43° ENE 00:06:44 43° ENE 00:10:54 10° N
CZ-4C R/B 4.1 00:10:20 40° NNE 00:10:20 40° NNE 00:12:55 10° N
SL-16 R/B 2.5 00:06:46 10° NNW 00:12:24 60° ENE 00:13:41 48° ESE
Cosmos 1869 4.4 00:09:46 10° NNW 00:13:24 35° W 00:13:24 35° W
Lacrosse 4 Rocket 2.3 00:09:58 10° NNW 00:14:11 42° ENE 00:14:35 41° ENE
Cosmos 1455 4.1 00:19:12 10° NW 00:21:56 21° W 00:21:56 21° W
Cosmos 372 Rocket 4.2 00:22:15 54° ESE 00:22:15 54° ESE 00:27:19 10° NNE
Cosmos 468 4.5 00:17:07 10° NNW 00:22:27 71° WSW 00:22:57 66° SW
Cosmos 2074 Rocket 4.1 00:22:06 52° SE 00:23:18 61° E 00:29:30 10° NNE
Landsat 5 4.1 00:23:40 49° ENE 00:23:43 50° ENE 00:28:05 10° N
ASTEX 1 3.7 00:20:15 10° NNE 00:24:59 50° E 00:24:59 50° E
Meteor 1-26 Rocket 4.1 00:20:58 10° N 00:26:36 82° E 00:27:25 66° SSE
Cosmos 2297 Rocket 2.4 00:25:45 44° SW 00:27:25 65° WNW 00:33:04 10° NNE
ERBS 4.1 00:30:25 31° NNE 00:30:25 31° NNE 00:32:24 10° NE
Cosmos 1709 Rocket 4.4 00:27:29 38° SW 00:29:30 53° WNW 00:35:29 10° N
H-2A R/B 2.7 00:26:50 10° NNE 00:30:32 67° NE 00:30:32 67° NE
CZ-4C R/B 4.5 00:26:05 10° NNW 00:31:52 27° NE 00:38:08 10° E
Cosmos 2221 Rocket 4.0 00:28:59 10° NNW 00:33:22 55° W 00:33:22 55° W
COS B Rocket 4.4 00:32:17 10° NNW 00:35:12 36° WNW 00:35:12 36° WNW
GEOS 3 Rocket 3.6 00:35:41 65° SW 00:35:55 66° WSW 00:41:07 10° NW
ATLAS 2AS CENTAUR R/B 3.1 00:32:38 27° SW 00:37:12 72° NW 00:45:18 10° NNE
Cosmos 1703 Rocket 4.2 00:33:05 10° NNW 00:37:00 45° W 00:37:00 45° W
Cosmos 2219 Rocket 3.6 00:33:27 10° NW 00:37:51 24° WSW 00:38:24 24° WSW
COSMOS 2455 2.7 00:35:07 10° NNW 00:41:11 83° WSW 00:42:06 65° SSE
CZ-2C R/B 3.4 00:37:19 10° NNE 00:42:07 36° E 00:42:07 36° E
Okean 1-7 3.3 00:38:29 10° NNW 00:42:15 59° WNW 00:42:15 59° WNW
Cosmos 2251 Rocket 4.2 00:39:41 10° N 00:44:49 46° ENE 00:45:50 41° E
Meteor 2-10 Rocket 4.0 00:41:28 10° N 00:46:55 56° ENE 00:47:50 50° ESE
Cosmos 2154 Rocket 4.5 00:47:46 42° ESE 00:48:55 46° E 00:54:54 10° NNE
MOS 1-B Rocket 4.2 00:47:44 45° ESE 00:49:06 56° ENE 00:54:34 10° N
Cosmos 389 Rocket 4.1 00:53:21 10° NNW 00:55:35 31° NW 00:55:35 31° NW
Geosat 3.8 00:51:47 10° NNE 00:56:51 87° ESE 00:57:05 81° S
Cosmos 1674 Rocket 4.3 00:52:43 10° N 00:56:48 44° ENE 00:56:48 44° ENE
Meteor 2-3 Rocket 3.7 00:57:41 63° SW 00:58:34 76° W 01:04:19 10° N
ATLAS 3B R/B 2.6 00:54:10 10° NW 01:01:05 68° WSW 01:02:13 58° SSW
Cosmos 2184 Rocket 4.0 00:59:55 55° SW 01:01:14 72° W 01:07:26 10° N
Helios 1A Rocket 3.2 00:58:23 10° NNE 01:01:59 66° N 01:01:59 66° N
USA 238 DEB 4.0 00:55:58 10° NNW 01:02:59 65° NE 01:06:14 33° ESE
USA 238 4.0 00:56:04 10° NNW 01:03:05 64° NE 01:06:23 33° ESE
Cosmos 2237 Rocket 3.7 01:00:36 10° NW 01:04:55 22° W 01:05:04 22° WSW
Cosmos 1892 3.6 01:11:42 48° N 01:11:42 48° N 01:14:32 10° N
FALCON 9 R/B 3.6 01:01:15 10° W 01:09:35 33° WSW 01:09:35 33° WSW
NOSS 2-3 (E) 4.0 01:11:18 62° WSW 01:11:58 71° NW 01:17:40 10° NNE
Cosmos 921 Rocket 4.0 01:14:28 36° ENE 01:14:28 36° ENE 01:17:34 10° NNE
Cosmos 44 4.1 01:14:57 44° ESE 01:14:57 44° ESE 01:19:48 10° NE
CZ-4B R/B 3.6 01:17:43 21° WNW 01:17:43 21° WNW 01:19:24 10° NW
Cosmos 2341 Rocket 4.2 01:16:06 51° SE 01:17:25 62° E 01:23:43 10° NNE
Uosat 12 SS-18 rocket 4.2 01:18:54 76° E 01:18:54 76° E 01:23:13 10° NE
H-2A ROCKET BODY 4.1 00:48:40 10° W 01:21:44 42° SSW 01:23:23 40° S
Cosmos 2084 Rocket 4.3 01:25:05 39° NE 01:25:05 39° NE 01:27:35 10° NE
Cosmos 1782 3.4 01:20:46 10° N 01:23:58 56° N 01:23:58 56° N
Sich 1 Rocket 3.7 01:27:48 73° NE 01:27:48 73° NE 01:31:59 10° N
USA 234 4.1 01:23:00 10° ESE 01:29:11 48° NNE 01:35:25 10° NW
Cosmos 494 Rocket 3.9 01:24:02 10° NNW 01:29:19 77° ENE 01:29:54 68° SE
Cosmos 1340 Rocket 3.7 01:32:25 42° NW 01:32:25 42° NW 01:35:33 10° N
Cosmos 962 Rocket 4.4 01:32:22 61° S 01:33:31 82° E 01:39:40 10° N
Cosmos 44 Rocket 4.0 01:39:15 42° W 01:40:23 50° NW 01:45:31 10° NNE
Cosmos 1825 3.2 01:42:13 41° ENE 01:42:13 41° ENE 01:45:08 10° NNE
SL-8 Rocket 4.3 01:40:17 45° SE 01:41:53 57° E 01:48:03 10° NNE
Cosmos 1733 Rocket 4.0 01:46:04 37° WNW 01:46:04 37° WNW 01:50:09 10° N
Cosmos 1408 3.5 01:49:45 48° NE 01:49:45 48° NE 01:52:45 10° NNE
Coronas F rocket 4.4 01:53:28 13° NNW 01:53:28 13° NNW 01:53:59 10° NNW
Lacrosse 4 Rocket 3.7 01:49:26 10° WNW 01:50:55 16° WNW 01:50:55 16° WNW
Cosmos 2263 Rocket 2.8 01:51:58 41° SE 01:52:45 43° ESE 01:58:06 10° NE
SL-16 R/B 3.9 01:52:06 10° WNW 01:55:32 19° W 01:55:32 19° W
Meteor 1-27 Rocket 3.7 01:50:29 10° NNW 01:56:22 79° W 01:57:22 61° SSW
NOSS 3-4 (A) 3.7 01:57:31 49° SSE 01:58:47 57° ESE 02:05:10 10° NE
BREEZE-M DEB (TANK) 3.6 01:54:05 10° WNW 01:57:18 31° WNW 01:57:18 31° WNW
NOSS 3-4 (C) 3.7 01:57:37 49° SSE 01:58:52 57° ESE 02:05:16 10° NE
Cosmos 1378 Rocket 3.6 01:55:55 10° NNW 02:00:01 70° WNW 02:00:01 70° WNW
NOSS 3-2 (A) 4.2 01:54:17 10° NNW 02:01:46 70° NE 02:09:08 13° SE
Meteor 2-13 Rocket 4.3 02:00:36 56° S 02:02:00 90° E 02:08:11 10° N
Cosmos 2366 rocket 4.2 02:01:50 43° SSE 02:03:38 60° E 02:09:41 10° NNE
Okean 3 3.4 01:59:39 10° N 02:03:49 83° N 02:03:49 83° N
Cosmos 1862 3.7 02:06:05 59° NW 02:06:05 59° NW 02:09:36 10° N
Nadezhda 3 Rocket 4.5 02:02:20 10° NNW 02:08:09 43° W 02:09:17 39° WSW
Okean 2 Rocket 3.0 02:10:09 83° SSE 02:10:18 86° E 02:14:51 10° N
CZ-2C R/B 3.6 02:11:35 47° WSW 02:12:18 50° W 02:17:50 10° NNW
Cosmos 1238 Rocket 3.9 02:09:44 10° NNW 02:12:49 34° WNW 02:12:49 34° WNW
Cosmos 1782 Rocket 3.6 02:19:57 61° W 02:19:58 61° W 02:24:20 10° N
CZ-4C R/B 2.8 02:14:03 10° NW 02:21:12 84° WSW 02:26:09 25° SSE
CZ-2C R/B 3.9 02:17:51 10° N 02:22:15 28° WNW 02:23:38 24° W
Cosmos 1943 3.1 02:16:37 10° NNW 02:22:19 75° WSW 02:23:35 54° S
Cosmos 1727 Rocket 4.0 02:17:55 10° N 02:24:11 75° E 02:26:42 38° SSE
Cosmos 1606 4.4 02:25:44 10° NNW 02:28:05 24° WNW 02:28:05 24° WNW
Cosmos 864 Rocket 4.4 02:27:03 47° S 02:29:03 89° E 02:35:14 10° N
Landsat 4 3.6 02:33:45 79° E 02:33:46 79° ENE 02:37:34 10° N
Cosmos 1867 3.6 02:34:20 10° NNW 02:39:50 78° ENE 02:43:22 23° SE
PSLV R/B 3.5 02:36:00 10° N 02:40:11 65° WNW 02:40:32 62° WSW
Resurs 1-4 Rocket 4.4 02:38:10 10° NE 02:41:17 16° E 02:44:22 10° SE
CRYOSAT 2 4.2 02:36:37 10° N 02:41:29 81° W 02:42:30 56° SSW
Cosmos 1975 Rocket 3.8 02:39:18 10° NNW 02:43:12 36° W 02:43:12 36° W
USA 161 4.2 02:44:56 12° E 02:46:05 15° ENE 02:47:48 10° NNE
BREEZE-M DEB (TANK) 4.3 02:32:37 10° WSW 02:46:18 52° NNW 02:50:15 10° NE
Cosmos 1242 Rocket 2.4 02:43:38 10° N 02:47:00 79° NNE 02:47:00 79° NNE
Cosmos 1607 4.4 02:42:27 10° NW 02:48:01 37° WSW 02:48:30 36° WSW
Cosmos 1624 Rocket 3.9 02:52:41 47° SSW 02:54:14 89° ESE 02:59:31 10° NNE
Cosmos 1536 Rocket 3.4 02:50:54 10° N 02:55:17 89° ENE 02:56:23 51° S
IRAS Rocket 4.2 02:51:54 10° NNE 02:57:27 90° SSE 02:59:36 40° SSW
Meteor 1-20 Rocket 4.4 03:01:49 31° S 03:04:40 72° E 03:10:28 10° NNE
NPP 3.6 02:59:19 10° NNE 03:04:43 82° WNW 03:06:51 38° SSW
SL-16 R/B 3.7 03:02:00 10° SE 03:07:46 41° ENE 03:13:32 10° N
Cosmos 2151 Rocket 3.9 03:07:47 43° WSW 03:08:41 50° W 03:13:02 10° N
ADEOS 3.8 03:03:43 10° NNE 03:08:55 63° ESE 03:11:28 30° S
BREEZE-M TANK 1.8 03:07:21 10° WNW 03:10:31 70° NNE 03:13:08 10° ESE
Okean 1 3.6 03:07:00 10° N 03:10:58 63° E 03:12:41 31° SSE
Iridium 4 Rocket 3.6 03:06:43 10° NNW 03:11:11 52° W 03:12:32 39° SW
USA 234 3.3 03:05:45 10° SSE 03:12:07 55° SW 03:18:31 10° NW
Okean 1-7 Rocket 4.2 03:07:58 10° N 03:12:27 55° E 03:15:29 20° SSE
Cosmos 1184 Rocket 4.4 03:13:16 25° WNW 03:13:16 25° WNW 03:15:59 10° NNW
Cosmos 1812 2.7 03:09:27 10° N 03:13:22 79° E 03:14:39 41° SSE
ARIANE 5 R/B 3.4 03:10:26 10° NNE 03:15:10 41° E 03:18:18 19° SSE
Abrixas rocket 2.1 03:15:16 73° WSW 03:15:32 88° NW 03:18:54 10° ENE
Cosmos 1452 Rocket 4.0 03:12:59 27° SSE 03:15:35 53° ESE 03:20:42 10° NNE
RESURS DK-1 2.9 03:14:33 39° WSW 03:15:35 48° WNW 03:19:39 10° NNE
ERS-2 2.2 03:15:04 10° N 03:18:45 62° WNW 03:19:28 49° SW
CBERS-1 4.1 03:17:57 10° N 03:23:04 66° WNW 03:25:21 33° SW
Okean 1 Rocket 3.0 03:23:13 34° S 03:25:06 84° E 03:29:34 10° N
Okean O Rocket 4.2 03:23:34 10° ENE 03:25:43 13° E 03:27:52 10° ESE
NOSS 3-2 (C) 4.2 03:20:26 10° NW 03:27:39 48° WSW 03:34:29 13° S
CENTAUR R/B 3.6 03:22:09 10° NNW 03:29:53 63° NE 03:38:05 10° SE
CZ-2D R/B 3.1 03:24:50 10° NNE 03:30:00 43° E 03:34:27 14° SSE
Cosmos 1821 Rocket 4.0 03:26:35 23° S 03:30:48 87° E 03:37:14 10° N
Cosmos 2123 Rocket 4.4 03:26:22 10° N 03:32:39 63° E 03:38:54 10° SSE
Cosmos 1844 Rocket 2.9 03:31:31 24° S 03:34:54 67° ESE 03:40:33 10° NNE
GP-B 3.3 03:30:54 10° N 03:35:16 57° W 03:37:07 32° SSW
Cosmos 1844 4.3 03:32:22 19° S 03:36:09 50° ESE 03:41:41 10° NE
Cosmos 2263 Rocket 3.5 03:33:39 18° WSW 03:36:49 29° NW 03:41:42 10° N
COSMOS 2406 3.2 03:35:43 10° NNW 03:41:27 68° WSW 03:47:08 10° SSE
SL-08 R/B 4.2 03:41:41 27° SW 03:43:18 34° W 03:47:46 10° NNW
Cosmos 1190 Rocket 4.3 03:39:34 10° NNW 03:44:32 45° WSW 03:47:22 23° SSW
Meteor 2-14 Rocket 4.4 03:46:33 17° S 03:51:17 88° E 03:57:24 10° N
Cosmos 2278 Rocket 3.1 03:46:40 13° S 03:51:19 44° ESE 03:56:42 10° NE
Meteor 2-21 Rocket 4.4 03:49:46 19° SSW 03:54:12 76° W 04:00:20 10° N
Cosmos 1140 Rocket 3.8 03:50:47 10° NNW 03:55:55 67° ENE 04:01:01 10° SSE
Spot 4 Rocket 4.3 03:50:55 10° N 03:55:57 56° WNW 03:59:14 21° SW
UNK 3.7 03:52:13 10° SSE 03:56:49 87° ENE 04:01:29 10° NNW
Cosmos 1602 3.6 03:55:28 24° SSW 03:57:43 78° W 04:01:35 10° N
NOSS 2-2 (D) 4.0 03:55:43 21° S 03:58:18 53° ESE 04:02:52 10° NE
OPS 6431 4.5 03:55:52 10° NW 03:58:50 59° WSW 04:01:47 10° SSE
Tiangong 1 1.4 03:59:17 30° WSW 04:00:09 38° SSW 04:03:02 10° SE
Cosmos 1025 Rocket 3.0 03:57:07 10° N 04:01:25 88° ENE 04:05:44 10° S
Cosmos 407 Rocket 4.0 03:57:31 10° NW 04:02:16 38° WSW 04:05:49 17° SSW
Meteor 2-15 4.4 03:56:27 10° N 04:02:37 82° W 04:08:45 10° S
ATLAS 5 CENTAUR R/B 3.9 03:57:09 10° NNW 04:02:43 40° NE 04:08:39 10° ESE
Cosmos 1536 2.8 04:04:07 17° S 04:07:10 87° W 04:11:16 10° N
Cosmos 676 Rocket 4.3 04:02:48 10° NNW 04:07:45 46° WSW 04:12:40 10° S
Meteor 2-4 Rocket 3.8 04:03:12 10° N 04:08:39 74° E 04:13:59 10° SSE
CZ-4C R/B 4.2 04:04:33 10° WNW 04:09:05 17° WSW 04:11:13 16° SW
SL-27 R/B 3.5 04:09:05 10° NW 04:12:15 28° WSW 04:13:49 20° SW
NOSS 2-2 (C) 3.6 04:09:51 19° SSW 04:12:45 77° ESE 04:17:29 10° NE
USA 161 3.1 04:16:08 18° W 04:16:19 18° W 04:18:22 10° NW
IRS-1D 3.7 04:11:56 10° N 04:16:56 56° WNW 04:20:59 15° SSW
Cosmos 1544 Rocket 3.6 04:13:14 11° S 04:17:29 84° E 04:21:55 10° N
UNKNOWN OBJECT B 2.9 04:15:12 10° N 04:19:18 86° WNW 04:23:04 12° SSW
Gbstr 26 Del rocket 2.6 04:16:43 18° SW 04:19:31 87° NW 04:23:16 10° NE
Resurs 1-4 Rocket 2.2 04:16:18 10° N 04:21:34 65° WNW 04:26:23 12° SSW
NOSS 8 (A) 4.5 04:19:17 18° SW 04:21:46 82° NW 04:25:29 10° NNE
OTV 4 1.8 04:22:22 19° SSW 04:22:48 20° SSW 04:25:03 10° SSE
IRS-1C Rocket 4.4 04:20:30 10° NNE 04:25:46 70° ESE 04:31:00 10° S
Timation 2 Rocket 4.2 04:29:14 10° NNW 04:35:26 76° ENE 04:41:25 10° SSE
BREEZE-M DEB (TANK) 4.4 04:28:32 10° WNW 04:38:19 41° N 04:41:33 10° ENE
Cosmos 1892 Rocket 3.7 04:34:43 10° NNW 04:38:58 53° W 04:43:10 10° S
NOSS 2-2 (E) 4.0 04:35:27 13° SW 04:39:11 56° NW 04:44:04 10° NNE
EO 1 Del DPAF 4.4 04:36:38 11° SSW 04:39:44 26° W 04:43:02 10° NW
Cosmos 1633 3.3 04:37:17 12° SW 04:40:15 36° WNW 04:43:37 10° N
Cosmos 2061 Rocket 4.3 04:37:33 10° S 04:43:51 77° E 04:50:15 10° N
SME Rocket 3.7 04:40:58 10° SSW 04:44:19 30° W 04:47:48 10° NW
ASTRO F (AKARI) 4.4 04:42:50 10° S 04:46:07 70° WSW 04:49:37 10° NNW
Okean-O 4.2 04:43:10 10° NNE 04:47:14 34° E 04:51:16 10° SSE
ADEOS II 4.1 04:44:56 10° NE 04:49:26 28° E 04:53:53 10° SSE
USA 129 2.6 04:48:53 10° SSW 04:50:49 29° W 04:52:44 10° NW
SL-16 R/B 3.3 04:45:57 10° SSW 04:51:26 32° W 04:56:57 10° NW
Cosmos 1356 4.3 04:48:53 10° SW 04:52:09 34° WNW 04:55:26 10° N
Abrixas rocket 4.2 04:50:04 10° WNW 04:52:57 26° NNW 04:55:51 10° NE
Cosmos 1400 Rocket 3.5 04:49:53 10° SW 04:53:28 35° WNW 04:57:06 10° N
ARIANE 5 R/B 3.9 04:50:09 10° NNW 04:54:02 23° WNW 04:57:55 10° WSW
CZ-2C R/B 3.9 04:50:14 10° S 04:54:54 59° W 04:59:38 10° NNW
Cosmos 1833 Rocket 3.8 04:53:12 10° NNW 04:58:40 50° ENE 05:04:05 10° SE
Cosmos 614 Rocket 4.2 04:54:20 10° NNW 04:59:19 50° WSW 05:04:14 10° S
COSMOS 2487 3.6 04:57:05 10° NW 05:00:10 26° W 05:03:14 10° SSW
Thor Agena Rocket 3.5 04:56:10 10° S 05:01:21 73° WSW 05:06:30 10° NNW
